St. Cloud, MN

2:23 PM CDT on June 22, 2018 (GMT -0500)
Saint Cloud Regional

Weather History for KSTC - October, 2017

Change the Weather History Date:

Friday, October 27, 2017

  Actual Average Record
Temperature  
Mean Temperature 32 °F 41 °F  
Max Temperature 34 °F 51 °F 75 °F (1983)
Min Temperature 30 °F 31 °F 5 °F (1976)
Degree Days  
Heating Degree Days 33 24  
Month to date heating degree days 415 499  
Since 1 July heating degree days 594 785  
Cooling Degree Days 0 0  
Month to date cooling degree days 0 0  
Year to date cooling degree days 361 463  
Moisture  
Dew Point 30 °F    
Average Humidity 89    
Maximum Humidity 100    
Minimum Humidity 78    
Precipitation  
Precipitation 0.15 in 0.06 in 1.29 in (1971)
Month to date precipitation 4.99 2.25  
Year to date precipitation 28.85 25.29  
Snow  
Snow 1.40 in 0.10 in 3.00 in (1919)
Month to date snowfall 1.4 0.6  
Since 1 July snowfall 1.4 0.6  
Since 1 September snowfall 1.4 0.6  
Snow Depth 1.00 in    
Sea Level Pressure  
Sea Level Pressure 29.84 in    
Wind  
Wind Speed 18 mph (NNW)    
Max Wind Speed 30 mph    
Max Gust Speed 39 mph    
Visibility 5 miles    
Events Fog , Snow    
T = Trace of Precipitation, MM = Missing Value Source: NWS Daily Summary

Daily Weather History Graph

Daily Weather History Graph

Search for Another Location

Airport or City:

Astronomy

Oct. 27, 2017 Rise Set
Actual Time 7:49 AM CDT 6:10 PM CDT
Civil Twilight 7:18 AM CDT 6:40 PM CDT
Nautical Twilight 6:43 AM CDT 7:15 PM CDT
Astronomical Twilight 6:09 AM CDT 7:49 PM CDT
Moon 2:29 PM CDT (10/27) No Moon Set
Length of Visible Light 11h 22m
Length of Day
10h 20m
Waxing Crescent, 48% of the Moon is Illuminated
Oct 27
Waxing Crescent
Oct 27
First Quarter
Nov 4
Full
Nov 10
Last Quarter
Nov 18
New

Hourly Weather History & Observations

Time (CDT) Temp. Windchill Dew Point Humidity Pressure Visibility Wind Dir Wind Speed Gust Speed Precip Events Conditions
12:44 AM 33.1 °F 20.9 °F 32.0 °F 96% 29.65 in 7.0 mi NW 21.9 mph 28.8 mph 0.00 in Snow Light Snow
12:53 AM 33.1 °F 21.2 °F 32.0 °F 96% 29.70 in 6.0 mi NW 20.7 mph 31.1 mph 0.00 in Snow Light Snow
1:17 AM 33.1 °F 21.5 °F 32.0 °F 96% 29.65 in 5.0 mi NW 19.6 mph 29.9 mph 0.00 in Snow Light Snow
1:33 AM 33.1 °F 22.2 °F 32.0 °F 96% 29.65 in 4.0 mi NW 17.3 mph 29.9 mph 0.00 in Snow Light Snow
1:53 AM 34.0 °F 23.8 °F 32.0 °F 92% 29.70 in 7.0 mi NW 16.1 mph 27.6 mph 0.00 in Snow Light Snow
2:53 AM 33.1 °F 22.6 °F 32.0 °F 96% 29.71 in 6.0 mi NNW 16.1 mph 25.3 mph 0.00 in Snow Light Snow
3:05 AM 33.1 °F 21.9 °F 32.0 °F 96% 29.65 in 3.0 mi NNW 18.4 mph 27.6 mph 0.01 in Snow Light Snow
3:11 AM 33.1 °F 22.2 °F 32.0 °F 96% 29.65 in 2.0 mi NNW 17.3 mph 28.8 mph 0.01 in Snow Light Snow
3:18 AM 33.1 °F 22.6 °F 32.0 °F 96% 29.66 in 1.2 mi NNW 16.1 mph 29.9 mph 0.02 in Snow Light Snow
3:38 AM 33.1 °F 21.5 °F 32.0 °F 96% 29.66 in 2.0 mi NNW 19.6 mph 29.9 mph 0.02 in Snow Light Snow
3:53 AM 33.1 °F 21.9 °F 32.0 °F 96% 29.72 in 2.0 mi NNW 18.4 mph 29.9 mph 0.02 in Snow Light Snow
4:43 AM 33.1 °F 21.9 °F 32.0 °F 96% 29.69 in 3.0 mi NNW 18.4 mph 29.9 mph 0.01 in Snow Light Snow
4:53 AM 33.1 °F 21.9 °F 32.0 °F 96% 29.75 in 3.0 mi NNW 18.4 mph 32.2 mph 0.01 in Snow Light Snow
5:07 AM 33.1 °F 22.6 °F 32.0 °F 96% 29.70 in 1.8 mi NNW 16.1 mph 29.9 mph 0.00 in Snow Light Snow
5:20 AM 33.1 °F 22.2 °F 32.0 °F 96% 29.70 in 2.0 mi NNW 17.3 mph 25.3 mph 0.00 in Snow Light Snow
5:29 AM 32.0 °F 19.2 °F 32.0 °F 100% 29.71 in 0.8 mi NNW 23.0 mph 32.2 mph 0.01 in Snow Light Snow
5:42 AM 32.0 °F 19.2 °F 32.0 °F 100% 29.71 in 1.2 mi NNW 23.0 mph 31.1 mph 0.02 in Snow Light Snow
5:53 AM 32.0 °F 19.8 °F 32.0 °F 100% 29.78 in 1.2 mi NNW 20.7 mph 35.7 mph 0.02 in Snow Light Snow
6:08 AM 32.0 °F 19.2 °F 32.0 °F 100% 29.73 in 0.5 mi NNW 23.0 mph 34.5 mph 0.02 in Fog , Snow Snow
6:29 AM 32.0 °F 20.1 °F 30.9 °F 96% 29.74 in 1.0 mi NNW 19.6 mph 33.4 mph 0.02 in Snow Light Snow
6:32 AM 32.0 °F 18.9 °F 30.9 °F 96% 29.74 in 0.8 mi NNW 24.2 mph 35.7 mph 0.02 in Snow Light Snow
6:53 AM 32.0 °F 19.5 °F 30.9 °F 96% 29.81 in 0.8 mi NNW 21.9 mph 33.4 mph 0.04 in Snow Light Snow
7:01 AM 32.0 °F 19.8 °F 30.9 °F 96% 29.75 in 1.2 mi NNW 20.7 mph 34.5 mph 0.00 in Snow Light Snow
7:07 AM 32.0 °F 19.2 °F 30.0 °F 92% 29.76 in 2.0 mi NNW 23.0 mph 35.7 mph 0.00 in Snow Light Snow
7:20 AM 32.0 °F 19.8 °F 30.9 °F 96% 29.76 in 1.5 mi North 20.7 mph 31.1 mph 0.00 in Snow Light Snow
7:53 AM 32.0 °F 19.5 °F 30.0 °F 92% 29.83 in 1.5 mi NNW 21.9 mph 35.7 mph 0.01 in Snow Light Snow
8:01 AM 32.0 °F 19.2 °F 30.0 °F 92% 29.78 in 3.0 mi North 23.0 mph 33.4 mph 0.00 in Snow Light Snow
8:53 AM 30.9 °F 17.8 °F 28.9 °F 92% 29.86 in 6.0 mi NNW 23.0 mph 34.5 mph 0.00 in Snow Light Snow
9:27 AM 30.9 °F 16.4 °F 28.9 °F 92% 29.81 in 2.5 mi North 28.8 mph 39.1 mph 0.00 in Snow Light Snow
9:40 AM 30.9 °F 17.8 °F 28.9 °F 92% 29.81 in 2.5 mi NNW 23.0 mph 33.4 mph 0.00 in Snow Light Snow
9:49 AM 30.2 °F 16.5 °F 28.4 °F 93% 29.82 in 4.0 mi NNW 24.2 mph 35.7 mph 0.00 in Snow Light Snow
9:53 AM 30.9 °F 17.5 °F 28.9 °F 92% 29.88 in 4.0 mi North 24.2 mph 35.7 mph 0.00 in Snow Light Snow
9:55 AM 30.9 °F 16.9 °F 28.9 °F 92% 29.82 in 3.0 mi North 26.5 mph 38.0 mph 0.00 in Snow Light Snow
10:53 AM 30.9 °F 18.1 °F 28.9 °F 92% 29.90 in 3.0 mi NNW 21.9 mph 34.5 mph 0.00 in Snow Light Snow
10:58 AM 30.9 °F 18.1 °F 28.9 °F 92% 29.84 in 2.5 mi NNW 21.9 mph 34.5 mph 0.00 in Snow Light Snow
11:05 AM 30.9 °F 17.8 °F 28.9 °F 92% 29.84 in 3.0 mi North 23.0 mph 34.5 mph 0.00 in Snow Light Snow
11:19 AM 32.0 °F 20.8 °F 28.9 °F 88% 29.84 in 4.0 mi North 17.3 mph 36.8 mph 0.00 in Snow Light Snow
11:31 AM 30.9 °F 18.1 °F 28.9 °F 92% 29.84 in 1.8 mi NNW 21.9 mph 35.7 mph 0.00 in Snow Light Snow
11:53 AM 30.9 °F 18.7 °F 28.9 °F 92% 29.92 in 1.2 mi NNW 19.6 mph 33.4 mph 0.00 in Snow Light Snow
12:24 PM 32.0 °F 20.1 °F 30.0 °F 92% 29.86 in 3.0 mi NNW 19.6 mph 31.1 mph 0.00 in Snow Light Snow
12:38 PM 32.0 °F 18.9 °F 28.9 °F 88% 29.86 in 2.0 mi NNW 24.2 mph 31.1 mph 0.00 in Snow Light Snow
12:45 PM 32.0 °F 19.8 °F 30.0 °F 92% 29.86 in 1.5 mi NNW 20.7 mph 31.1 mph 0.00 in Snow Light Snow
12:53 PM 32.0 °F 19.8 °F 30.0 °F 92% 29.92 in 1.5 mi NNW 20.7 mph 29.9 mph 0.00 in Snow Light Snow
1:10 PM 32.0 °F 20.1 °F 28.9 °F 88% 29.86 in 3.0 mi NNW 19.6 mph 38.0 mph 0.00 in Snow Light Snow
1:53 PM 33.1 °F 20.9 °F 28.9 °F 85% 29.93 in 10.0 mi NNW 21.9 mph 34.5 mph 0.00 in   Overcast
2:03 PM 33.1 °F 21.9 °F 28.0 °F 82% 29.87 in 10.0 mi North 18.4 mph 38.0 mph 0.00 in Snow Light Snow
2:53 PM 33.1 °F 22.2 °F 28.9 °F 85% 29.95 in 8.0 mi NNW 17.3 mph 35.7 mph 0.00 in Snow Light Snow
3:13 PM 33.1 °F 20.9 °F 28.9 °F 85% 29.89 in 9.0 mi North 21.9 mph 38.0 mph 0.00 in Snow Light Snow
3:20 PM 33.1 °F 21.2 °F 28.9 °F 85% 29.89 in 9.0 mi NNW 20.7 mph 28.8 mph 0.00 in   Overcast
3:53 PM 33.1 °F 22.2 °F 28.9 °F 85% 29.97 in 10.0 mi NNW 17.3 mph 32.2 mph 0.00 in   Overcast
4:53 PM 33.1 °F 21.9 °F 28.9 °F 85% 29.99 in 10.0 mi NNW 18.4 mph 28.8 mph 0.00 in   Overcast
5:17 PM 33.1 °F 21.5 °F 28.9 °F 85% 29.94 in 9.0 mi NNW 19.6 mph 28.8 mph 0.00 in   Overcast
5:48 PM 33.8 °F 23.2 °F 28.4 °F 81% 29.96 in 9.0 mi NNW 17.3 mph 25.3 mph 0.00 in Snow Light Snow
5:53 PM 33.1 °F 23.4 °F 30.0 °F 89% 30.02 in 7.0 mi NNW 13.8 mph 24.2 mph 0.00 in Snow Light Snow
6:18 PM 32.0 °F 22.1 °F 30.0 °F 92% 29.97 in 4.0 mi NNW 13.8 mph 21.9 mph 0.00 in Snow Light Snow
6:35 PM 32.0 °F 21.6 °F 30.0 °F 92% 29.98 in 8.0 mi NNW 15.0 mph 26.5 mph 0.00 in Snow Light Snow
6:53 PM 32.0 °F 21.6 °F 28.9 °F 88% 30.05 in 8.0 mi NNW 15.0 mph 23.0 mph 0.00 in Snow Light Snow
7:53 PM 32.0 °F 21.6 °F 28.0 °F 85% 30.06 in 10.0 mi NNW 15.0 mph 23.0 mph 0.00 in   Overcast
8:53 PM 32.0 °F 21.6 °F 27.0 °F 82% 30.06 in 10.0 mi NNW 15.0 mph - N/A   Mostly Cloudy
9:12 PM 32.0 °F 22.5 °F 27.0 °F 82% 30.01 in 10.0 mi NNW 12.7 mph - N/A   Overcast
9:53 PM 30.9 °F 21.7 °F 27.0 °F 85% 30.07 in 10.0 mi NNW 11.5 mph - N/A   Mostly Cloudy
10:53 PM 30.0 °F 20.5 °F 27.0 °F 88% 30.06 in 10.0 mi NNW 11.5 mph - N/A   Mostly Cloudy
11:53 PM 30.0 °F 20.5 °F 24.1 °F 79% 30.06 in 10.0 mi NNW 11.5 mph 19.6 mph N/A   Scattered Clouds